[[{"header":{"parameterUnit":"m.s-1","parameterCategory":1,"la1":30.2991,"la2":30.254,"lo1":-89.0895,"lo2":-89.0444,"dy":0.0017,"dx":0.0017,"nx":28,"ny":28,"refTime":"2024-08-17T21:00:00:Z","depth":0,"parameterNumber":2,"parameterNumberName":"U-component_of_WINDS"},"data":[0,0,0,0,0,0,0,0,0,0,0,0,0,0,0,0,0,0,0,0,0,0,0,0,0,0,0,0,0,0,0,0,0,0,0,0,0,0,0,0,0,0,0,0,0,0,0,0,0,0,0,0,0,0,0,0,0,0,0.6375,0.6376,0,0.6475,0.6476,0.6477,0.6517,0.6517,0.6517,0.6516,0.662,0.6623,0.6626,0,0,0,0,0,0,0,0,0,0,0,0,0,0.6217,0.622,0.6375,0.6376,0.6377,0.6475,0.6476,0.6478,0.6517,0.6517,0.6517,0.6516,0.6619,0.6623,0.6626,0,0,0,0,0,0,0,0,0,0,0,0,0,0.6299,0.6221,0.6375,0.6409,0.6413,0.6475,0.6476,0.6478,0.6517,0.6517,0.6517,0.6516,0.6618,0.6622,0.6627,0.6662,0,0,0.6641,0.6642,0,0,0,0,0,0,0,0,0.6294,0.6304,0.6403,0.6407,0.6411,0.6483,0.6459,0.654,0.6517,0.6478,0.6516,0.6516,0.6575,0.6583,0.6603,0.6667,0.6671,0.6641,0.6644,0.6646,0.6647,0,0,0,0,0,0,0,0.6288,0.63,0.6415,0.6404,0.6409,0.6419,0.643,0.6474,0.6527,0.6481,0.6484,0.6496,0.6577,0.6598,0.6605,0.6673,0.6641,0.6645,0.6648,0.6649,0.677,0.6771,0,0,0,0,0,0,0.6277,0.6295,0.6411,0.6418,0.635,0.6422,0.6435,0.6461,0.6527,0.6537,0.6496,0.6497,0.6591,0.66,0.6609,0.6654,0.6646,0.665,0.6652,0.677,0.677,0.6771,0,0,0,0,0,0,0.6273,0.6287,0.6407,0.6357,0.6373,0.6425,0.6454,0.6463,0.6484,0.6538,0.6548,0.6507,0.6591,0.6603,0.6648,0.6658,0.6652,0.6656,0.6769,0.677,0.677,0.6745,0,0,0,0,0,0,0.6269,0.6285,0.63,0.6357,0.6376,0.6445,0.6455,0.6465,0.6491,0.6494,0.6551,0.6561,0.6591,0.6641,0.6653,0.6665,0.6659,0.6768,0.6769,0.677,0.6745,0.6745,0.6745,0,0,0,0,0,0.6263,0.6289,0.63,0.6314,0.6395,0.6445,0.6456,0.6491,0.6492,0.6506,0.6541,0.6559,0.6655,0.6646,0.6659,0.6672,0.6768,0.6769,0.677,0.6745,0.6745,0.6745,0,0,0,0,0,0,0.6232,0.6297,0.631,0.6356,0.6395,0.6452,0.6472,0.6489,0.6529,0.653,0.6571,0.6584,0.6625,0.6653,0.6642,0.6709,0.6713,0.6717,0.669,0.669,0.6689,0.6682,0.6663,0,0,0,0,0,0.623,0.6266,0.6321,0.6356,0.6374,0.6419,0.6443,0.6466,0.6508,0.6525,0.6563,0.6603,0.6642,0.6667,0.6707,0.6749,0.6762,0.6765,0.6764,0.6764,0.6767,0.679,0.6792,0.6774,0.6774,0.6774,0,0,0.6227,0.6267,0.6288,0.635,0.6383,0.6419,0.6433,0.6471,0.6498,0.6531,0.6576,0.6605,0.6652,0.6696,0.6717,0.672,0.6774,0.6765,0.6764,0.6768,0.6791,0.6793,0.6794,0.6775,0.6775,0.6775,0,0,0.624,0.6274,0.6307,0.6339,0.6388,0.6417,0.6425,0.6479,0.65,0.6545,0.657,0.6603,0.667,0.6702,0.6728,0.6751,0.6769,0.6762,0.6761,0.6783,0.6785,0.6786,0.6794,0.6796,0.6765,0.6765,0.6765,0,0.6231,0.6286,0.6321,0.6357,0.6383,0.6414,0.6447,0.6476,0.6536,0.6553,0.6556,0.664,0.6674,0.6725,0.673,0.675,0.676,0.6757,0.6782,0.6783,0.6785,0.6793,0.6796,0.6764,0.6764,0.6764,0.6764,0,0.6271,0.6308,0.6329,0.6384,0.6413,0.6447,0.6487,0.6512,0.6532,0.6561,0.6606,0.6648,0.6696,0.671,0.673,0.6764,0.6764,0.6773,0.6778,0.6785,0.6793,0.6797,0.6762,0.6763,0.6763,0.6763,0,0,0.6268,0.6342,0.6349,0.6374,0.643,0.646,0.6494,0.654,0.6561,0.66,0.663,0.6685,0.6694,0.6722,0.6746,0.6766,0.6781,0.6773,0.6775,0.6773,0.6819,0.6812,0.6815,0.6792,0.6793,0.6794,0.6815,0,0.6289,0.6353,0.6385,0.6435,0.6469,0.6498,0.6528,0.6565,0.6593,0.6626,0.6656,0.6695,0.6703,0.6721,0.6741,0.6775,0.6791,0.6773,0.6821,0.6822,0.6808,0.6819,0.6812,0.6831,0.6819,0.6819,0.682,0,0.6322,0.636,0.6413,0.6463,0.6479,0.6506,0.655,0.6581,0.6624,0.6642,0.6673,0.6696,0.6733,0.6734,0.6786,0.6773,0.6794,0.6813,0.6815,0.6821,0.6822,0.6826,0.6838,0.684,0.6825,0.6825,0.6824,0,0.6314,0.6379,0.6419,0.644,0.65,0.6517,0.6543,0.6585,0.661,0.6648,0.6665,0.6707,0.673,0.6762,0.6796,0.6794,0.6844,0.6848,0.686,0.686,0.6871,0.6869,0.6886,0.6883,0.6883,0.6883,0.6883,0,0.6333,0.6365,0.6416,0.6441,0.6476,0.6512,0.6547,0.6574,0.6611,0.6641,0.6668,0.6696,0.6739,0.6772,0.6798,0.6836,0.6847,0.6863,0.6869,0.686,0.6858,0.6875,0.6875,0.6884,0.6884,0.6884,0.6884,0,0.6331,0.6367,0.6412,0.6465,0.6479,0.6503,0.6547,0.6572,0.66,0.6638,0.6649,0.6693,0.6733,0.6769,0.6823,0.684,0.6879,0.6888,0.6865,0.6869,0.6879,0.6877,0.6907,0.6912,0.6906,0.6906,0.6906,0,0.6342,0.6366,0.6421,0.6443,0.6468,0.6503,0.6529,0.6565,0.659,0.6639,0.6657,0.6699,0.6735,0.6797,0.6834,0.6874,0.6884,0.6892,0.6891,0.688,0.6884,0.6882,0.6885,0.6891,0.6891,0.6891,0.6891,0,0.6356,0.6372,0.6408,0.6449,0.6478,0.6513,0.6548,0.6565,0.6607,0.6634,0.6675,0.6702,0.6756,0.6797,0.6841,0.6868,0.6886,0.6891,0.6896,0.6887,0.6873,0.6881,0.6864,0.689,0.689,0.689,0.689,0.6891,0.636,0.6383,0.6425,0.6463,0.6493,0.6525,0.6551,0.6582,0.6616,0.6663,0.6682,0.6723,0.6763,0.6825,0.6851,0.6883,0.6887,0.6894,0.6896,0.6897,0.6896,0.6867,0.6891,0.6891,0.6892,0.6892,0.6892,0,0.6376,0.6404,0.6439,0.6487,0.6517,0.6531,0.657,0.6594,0.663,0.6666,0.67,0.6746,0.6786,0.6825,0.6866,0.6885,0.6894,0.6894,0.6894,0.6899,0.689,0.6881,0.6886,0.6886,0.6886,0.6886,0.6886,0.6886,0.6387,0.6427,0.6447,0.6501,0.6529,0.6569,0.6591,0.662,0.6649,0.6699,0.6732,0.6757,0.6794,0.6838,0.6874,0.6885,0.6899,0.6897,0.6909,0.69,0.69,0.69,0.6893,0.6899,0.6899,0.6916,0.6916,0.6916]},{"header":{"parameterUnit":"m.s-1","parameterCategory":1,"la1":30.2991,"la2":30.254,"lo1":-89.0895,"lo2":-89.0444,"dy":0.0017,"dx":0.0017,"nx":28,"ny":28,"refTime":"2024-08-17T21:00:00:Z","depth":0,"parameterNumber":3,"parameterNumberName":"V-component_of_WINDS"},"data":[0,0,0,0,0,0,0,0,0,0,0,0,0,0,0,0,0,0,0,0,0,0,0,0,0,0,0,0,0,0,0,0,0,0,0,0,0,0,0,0,0,0,0,0,0,0,0,0,0,0,0,0,0,0,0,0,0,0,4.5012,4.5012,0,4.4972,4.4971,4.4971,4.496,4.4961,4.4961,4.4961,4.4914,4.4913,4.4912,0,0,0,0,0,0,0,0,0,0,0,0,0,4.5075,4.5074,4.5012,4.5012,4.5011,4.4972,4.4971,4.4971,4.496,4.4961,4.4961,4.4961,4.4915,4.4913,4.4911,0,0,0,0,0,0,0,0,0,0,0,0,0,4.5042,4.5073,4.5012,4.5001,4.5,4.4972,4.4971,4.4971,4.496,4.4961,4.4961,4.4961,4.4916,4.4913,4.4911,4.4889,0,0,4.4904,4.4903,0,0,0,0,0,0,0,0,4.5044,4.504,4.5003,4.5002,4.5,4.4972,4.4976,4.4943,4.496,4.4975,4.4961,4.4962,4.4933,4.4929,4.4921,4.4887,4.4885,4.4904,4.4903,4.4902,4.4901,0,0,0,0,0,0,0,4.5046,4.5041,4.4996,4.5003,4.5001,4.4997,4.4992,4.497,4.4952,4.4974,4.4973,4.4969,4.4932,4.4923,4.4919,4.4885,4.4904,4.4902,4.4901,4.49,4.4829,4.4829,0,0,0,0,0,0,4.5051,4.5043,4.4997,4.4995,4.5024,4.4995,4.499,4.498,4.4952,4.4949,4.4968,4.4968,4.4926,4.4922,4.4918,4.4889,4.4902,4.49,4.4898,4.483,4.4829,4.4829,0,0,0,0,0,0,4.5052,4.5047,4.4999,4.5019,4.5012,4.4994,4.4982,4.4979,4.497,4.4948,4.4944,4.4963,4.4926,4.4921,4.4897,4.4888,4.4899,4.4897,4.4831,4.483,4.4829,4.4833,0,0,0,0,0,0,4.5054,4.5048,4.5041,4.5019,4.5011,4.498,4.4982,4.4978,4.4967,4.4967,4.4942,4.4938,4.4926,4.49,4.4894,4.4885,4.4895,4.4831,4.483,4.4829,4.4834,4.4833,4.4832,0,0,0,0,0,4.5057,4.5043,4.504,4.5035,4.5003,4.498,4.4975,4.4964,4.4966,4.4958,4.4944,4.4939,4.489,4.4898,4.4891,4.4881,4.4832,4.483,4.4829,4.4834,4.4833,4.4832,0,0,0,0,0,0,4.5062,4.504,4.5037,4.5016,4.5,4.4978,4.4968,4.4963,4.4945,4.4945,4.493,4.4924,4.49,4.4888,4.4897,4.4857,4.486,4.4858,4.4866,4.4865,4.4864,4.4867,4.4893,0,0,0,0,0,4.5062,4.5047,4.5027,4.501,4.5002,4.4986,4.4976,4.4969,4.4951,4.4944,4.4928,4.4909,4.4889,4.4876,4.4857,4.4832,4.4825,4.4821,4.4821,4.482,4.4817,4.4802,4.4799,4.4825,4.4825,4.4825,0,0,4.5059,4.5045,4.5036,4.5011,4.4998,4.4981,4.4981,4.4963,4.495,4.494,4.4917,4.4904,4.4882,4.4857,4.4845,4.4846,4.4809,4.4818,4.4818,4.4816,4.48,4.4798,4.4796,4.4824,4.4824,4.4824,0,0,4.5045,4.5034,4.5018,4.5005,4.4986,4.4975,4.4971,4.495,4.4942,4.4918,4.491,4.4893,4.486,4.4844,4.4832,4.4812,4.4806,4.4806,4.48,4.4785,4.4783,4.4781,4.4772,4.4769,4.4804,4.4804,4.4804,0,4.5044,4.502,4.501,4.4993,4.4981,4.4974,4.4956,4.4943,4.4918,4.4909,4.4911,4.4869,4.4853,4.4824,4.4819,4.481,4.4803,4.4808,4.4784,4.4782,4.478,4.4772,4.4769,4.4804,4.4804,4.4804,4.4804,0,4.5019,4.5003,4.4992,4.4969,4.4956,4.4939,4.4924,4.4912,4.4905,4.4894,4.4869,4.485,4.4826,4.4819,4.4812,4.4788,4.4789,4.4788,4.479,4.4778,4.477,4.4766,4.4804,4.4804,4.4804,4.4804,0,0,4.5008,4.498,4.4976,4.4965,4.4943,4.4929,4.491,4.4889,4.4878,4.486,4.4843,4.4815,4.4813,4.4799,4.479,4.4777,4.476,4.4777,4.4776,4.4773,4.4731,4.4731,4.4728,4.4756,4.4756,4.4755,4.4732,0,4.4991,4.496,4.495,4.4923,4.4907,4.4898,4.4882,4.4865,4.4854,4.4836,4.4823,4.4803,4.4803,4.4794,4.4781,4.4765,4.4751,4.4767,4.4738,4.4737,4.4743,4.4724,4.4724,4.4703,4.4729,4.4728,4.4728,0,4.4968,4.4951,4.4923,4.4902,4.4895,4.488,4.4859,4.4843,4.4823,4.4816,4.48,4.4791,4.4769,4.4774,4.4742,4.4753,4.4741,4.4731,4.473,4.4726,4.4731,4.4718,4.4697,4.4693,4.4723,4.4723,4.4724,0,4.4961,4.4932,4.4911,4.4902,4.4877,4.4867,4.4856,4.4836,4.4824,4.4804,4.4795,4.4773,4.476,4.4742,4.4727,4.4732,4.4696,4.47,4.4687,4.4688,4.468,4.468,4.4655,4.4673,4.4673,4.4673,4.4674,0,4.4943,4.4926,4.4908,4.4895,4.4874,4.4862,4.4842,4.483,4.4812,4.4795,4.4786,4.477,4.4752,4.4732,4.472,4.4695,4.4689,4.4681,4.4678,4.4681,4.4682,4.4672,4.4673,4.4673,4.4673,4.4673,4.4673,0,4.4932,4.492,4.4896,4.4875,4.4869,4.4855,4.4835,4.4821,4.4809,4.4788,4.4782,4.4762,4.4739,4.4722,4.4692,4.4684,4.4656,4.4653,4.4663,4.4661,4.4649,4.465,4.4616,4.461,4.4634,4.4633,4.4633,0,4.4921,4.4908,4.4885,4.4874,4.4863,4.4845,4.4832,4.4819,4.4805,4.4781,4.4769,4.4746,4.4727,4.4689,4.4671,4.4647,4.4643,4.4632,4.4639,4.4643,4.4641,4.4642,4.4639,4.4631,4.4631,4.4631,4.4631,0,4.4902,4.4896,4.4879,4.4859,4.4845,4.4828,4.4811,4.4802,4.4785,4.477,4.4747,4.4732,4.4702,4.4677,4.4652,4.4638,4.463,4.4629,4.4624,4.4627,4.4633,4.4629,4.4659,4.463,4.463,4.463,4.463,4.463,4.489,4.4877,4.4859,4.484,4.4826,4.481,4.4796,4.4782,4.4764,4.4739,4.4732,4.4707,4.4685,4.4651,4.4636,4.4615,4.4616,4.461,4.4608,4.4606,4.4606,4.4638,4.4611,4.4611,4.4611,4.4611,4.4611,0,4.4869,4.4857,4.484,4.4817,4.4801,4.4798,4.4779,4.4765,4.4745,4.4726,4.4708,4.468,4.4656,4.4636,4.4611,4.4598,4.4594,4.4592,4.4592,4.4588,4.4608,4.4613,4.4595,4.4595,4.4595,4.4595,4.4595,4.4595,4.4857,4.4835,4.4827,4.4797,4.4785,4.4762,4.4751,4.4736,4.4721,4.4692,4.4673,4.466,4.464,4.4614,4.4591,4.4585,4.4576,4.4574,4.4568,4.4586,4.4587,4.4589,4.4594,4.4573,4.4573,4.455,4.455,4.455]}]]